Location: Le Sartre
(44.8050°N, 2.2123°E)
Time: 14:47:59
(UTC+00:00)

Cosmos 2082 Rocket - Pass Details

Date: 15 May 2026
Orbit: 832 x 852 km, 71.0° (Epoch: 10 June)

Event Time Altitude Azimuth Distance (km) Brightness Sun altitude
Rises 20:36:31 0° 223° (SW) 3,408 5.3 -12.8°
Reaches altitude 10° 20:39:04 10° 229° (SW) 2,476 4.7 -13.1°
Maximum altitude 20:44:31 46° 302° (WNW) 1,133 3.4 -13.8°
Drops below altitude 10° 20:50:00 10° 16° (NNE) 2,486 5.1 -14.5°
Sets 20:52:35 0° 22° (NNE) 3,423 5.7 -14.8°
